This demonstration page uses our WeatherBlox Daily Observations layout. Learn more.

Left ArrowRight Arrow

39.92423, -83.80882

Hourly Observations for August 18, 2022

Temp ( °F °C ) Dew Point ( °F °C ) Humidity (%) Winds ( mph kmh ) Pressure ( in mb ) Visibility ( mi km ) Precip ( " mm )
12:56 am 00:56 Clear 61 16.1 N/A N/A NNW 3 6 30.04 1017 10 16 0.00 0.00
1:56 am 01:56 Clear 60 15.6 N/A N/A NNW 6 9 30.04 1017 10 16 0.00 0.00
2:56 am 02:56 Clear N/A N/A N/A N 3 6 30.10 1019 10 16 0.00 0.00
3:56 am 03:56 Clear N/A N/A N/A Calm 30.08 1019 10 16 0.00 0.00
4:35 am 04:35 Clear with Mist and Fog N/A N/A N/A Calm 30.10 1019 2 3 0.00 0.00
4:47 am 04:47 Clear with Mist and Fog N/A N/A N/A Calm 30.10 1019 3 5 0.00 0.00
4:54 am 04:54 Clear with Mist and Fog N/A N/A N/A Calm 30.10 1019 2 2 0.00 0.00
4:56 am 04:56 Clear with Mist and Fog N/A N/A N/A Calm 30.10 1019 1 2 0.00 0.00
5:25 am 05:25 Clear with Mist and Fog N/A N/A N/A N 3 6 30.10 1019 3 5 0.00 0.00
5:56 am 05:56 Hazy N/A N/A N/A NNW 3 6 30.10 1019 5 8 0.00 0.00
6:56 am 06:56 Hazy 56 13.3 N/A N/A Calm 30.04 1017 6 10 0.00 0.00
7:56 am 07:56 Hazy N/A N/A N/A Calm 30.11 1020 6 10 0.00 0.00
8:56 am 08:56 Sunny 66 18.9 66 18.9 100 100 Calm 30.05 1018 10 16 0.00 0.00
9:56 am 09:56 Sunny 72 22.2 62 16.7 71 71 NNW 3 6 30.05 1018 10 16 0.00 0.00
10:56 am 10:56 Sunny 74 23.3 61 16.1 64 64 N 6 9 30.05 1018 10 16 0.00 0.00
11:56 am 11:56 Sunny 76 24.4 61 16.1 60 60 VRB 5 7 30.04 1017 10 16 0.00 0.00
12:56 pm 12:56 Partly Cloudy 77 25 60 15.6 56 56 Calm 30.04 1017 10 16 0.00 0.00
1:56 pm 13:56 Mostly Cloudy 78 25.6 60 15.6 54 54 VRB 3 6 30.03 1017 10 16 0.00 0.00
2:56 pm 14:56 Partly Cloudy 79 26.1 58 14.4 49 49 Calm 29.98 1015 10 16 0.00 0.00
3:56 pm 15:56 Cloudy 79 26.1 59 15 50 50 VRB 3 6 29.97 1015 10 16 0.00 0.00
4:56 pm 16:56 Cloudy 80 26.7 64 17.8 58 58 VRB 3 6 29.96 1014 10 16 0.00 0.00
5:56 pm 17:56 Mostly Cloudy 80 26.7 61 16.1 52 52 E 5 7 29.96 1014 10 16 0.00 0.00
6:56 pm 18:56 Mostly Sunny 77 25 60 15.6 56 56 Calm 29.99 1016 10 16 0.00 0.00
7:56 pm 19:56 Sunny 72 22.2 63 17.2 73 73 S 3 6 29.96 1015 10 16 0.00 0.00
8:56 pm 20:56 Clear 67 19.4 67 19.4 100 100 E 3 6 29.99 1016 10 16 0.00 0.00
9:56 pm 21:56 Clear 63 17.2 N/A N/A ESE 3 6 30.01 1016 10 16 0.00 0.00
10:56 pm 22:56 Clear 62 16.7 N/A N/A Calm 30.01 1016 10 16 0.00 0.00
11:56 pm 23:56 Clear N/A N/A N/A E 3 6 30.07 1018 10 16 0.00 0.00

Powered by AerisWeather